TITAN 3C TRANSTAGE DEB, 5992

Orbit data source: Space-Track

TITAN 3C TRANSTAGE DEB, 5992 is space debris in HEO originally from a launch on Tue, 21 Dec 1965 UTC launched from the Air Force Eastern Test Range (AFETR). Debris objects in space refer to the collection of defunct objects orbiting the Earth. Examples of debris include non-operational satellites, rocket bodies, and fragments generated from explosions, collisions, or faulty payload assembly.

Loading next visibility...
Identifier
5992, 1965-108S
Orbit
HEO
Country
Flag of USUS
Related business
Manufacturer
Unknown
Mission
Spacecraft
Bus & Motor
Unknown
Mass
Unknown
Launch date (UTC)
1965-12-21 (60 years ago)
Launch vehicle
Unknown
Launch site
Air Force Eastern Test Range (AFETR)
Object type
Payload
Rocket body
Debris
Shape & HBR
Unknown shape, 0.1 m
Radar Cross Section
Small (<0.1 m²)

Expand to show TLE details & history
Last TLE update: 6 days ago

TLE from 6 days ago
0 TITAN 3C TRANSTAGE DEB
1 05992U 65108S   26128.15728084 -.00000054  00000-0  55665-3 0  9999
2 05992  26.8913  94.5763 6638542 127.3846 313.4310  2.66136964 15841
Epoch: 2026-05-08T03:46Z
TLE epoch observation values (Epoch: 2026-05-08T03:46:29.064Z)
Latitude
0.00003°
Longitude
171.92995°
Altitude
14,216.57 km
Speed
4.537 km/s
True Right ascension
06h 18m 10s
True Declination
0° 00' 00"
Sunlit
Object was in daylight at epoch
Visualization orbit readout
Latitude
Unknown
Longitude
Unknown
Altitude
Unknown
Speed
Unknown
Apparent Right ascension
Unknown
Apparent Declination
Unknown
Sunlit
N/A
Visualization observer readout
Local Sidereal Time
01:56:19
Azimuth
Unknown
Elevation
Unknown
Doppler factor
Unknown
Orbital elements
Apogee altitude
30,224.532 km
Perigee altitude
1,016.642 km
Semi-major axis
21,998.724 km
Eccentricity
0.66385
Inclination
26.8913°
RAAN
94.5763°
Arg. of periapsis
127.3846°
True anomaly
232.71537°
Mean anomaly
313.431°
Eccentric anomaly
275.57486°
Mean motion
0.66519 °/min
Orbital period
541.2 mins
BSTAR
0.00055665
Loading maneuver chart data...
Computing Atmospheric mass density...

Documentation

Showing up to 5 results
|